This demonstration page uses our WeatherBlox Daily Observations layout. Learn more.

36.17497, -115.13722

Hourly Observations for July 22, 2019

Temp ( °F °C ) Dew Point ( °F °C ) Humidity (%) Winds ( mph kmh ) Pressure ( in mb ) Visibility ( mi km ) Precip ( " mm )
12:53 am 00:53 Clear 89 31.7 38 3.3 16 16 Calm 29.83 1010 10 16.09344 0 0
1:53 am 01:53 Clear 87 30.6 40 4.4 19 19 WNW 6 9 29.83 1010 10 16.09344 0 0
2:53 am 02:53 Clear 84 28.9 37 2.8 19 19 NNW 7 11 29.83 1010 10 16.09344 0 0
3:53 am 03:53 Clear 83 28.3 37 2.8 19 19 NNW 6 9 29.83 1010 10 16.09344 0 0
4:53 am 04:53 Clear 82 27.8 35 1.7 18 18 NNW 6 9 29.85 1011 10 16.09344 0 0
5:53 am 05:53 Sunny 81 27.2 36 2.2 20 20 NNW 6 9 29.85 1011 10 16.09344 0 0
6:53 am 06:53 Sunny 84 28.9 36 2.2 18 18 N 5 7 29.88 1012 10 16.09344 0 0
7:53 am 07:53 Sunny 90 32.2 44 6.7 20 20 NE 6 9 29.88 1012 10 16.09344 0 0
8:53 am 08:53 Sunny 92 33.3 45 7.2 20 20 VRB 3 6 29.91 1013 10 16.09344 0 0
9:53 am 09:53 Sunny 94 34.4 43 6.1 17 17 ESE 5 7 29.91 1013 10 16.09344 0 0
10:53 am 10:53 Sunny 98 36.7 44 6.7 16 16 S 7 11 29.91 1013 10 16.09344 0 0
11:53 am 11:53 Sunny 98 36.7 48 8.9 18 18 ESE 10 17 29.91 1013 10 16.09344 0 0
12:53 pm 12:53 Sunny 102 38.9 47 8.3 15 15 VRB 5 7 29.91 1013 10 16.09344 0 0
1:53 pm 13:53 Sunny 105 40.6 48 8.9 15 15 SSE 15 24 29.88 1012 10 16.09344 0 0
2:53 pm 14:53 Sunny 105 40.6 44 6.7 13 13 SE 10 17 29.88 1012 10 16.09344 0 0
3:53 pm 15:53 Sunny 106 41.1 47 8.3 14 14 E 5 7 29.85 1011 10 16.09344 0 0
4:53 pm 16:53 Sunny 105 40.6 45 7.2 13 13 SE 9 15 29.83 1010 10 16.09344 0 0
5:53 pm 17:53 Sunny 105 40.6 45 7.2 13 13 S 9 15 29.83 1010 10 16.09344 0 0
6:53 pm 18:53 Sunny 103 39.4 48 8.9 16 16 S 14 22 29.83 1010 10 16.09344 0 0
7:53 pm 19:53 Sunny 101 38.3 49 9.4 17 17 SSW 14 22 29.83 1010 10 16.09344 0 0
8:53 pm 20:53 Clear 99 37.2 47 8.3 17 17 SSW 9 15 29.83 1010 10 16.09344 0 0
9:53 pm 21:53 Clear 97 36.1 44 6.7 16 16 SE 7 11 29.85 1011 10 16.09344 0 0
10:53 pm 22:53 Partly Cloudy 99 37.2 44 6.7 15 15 W 15 24 29.85 1011 10 16.09344 0 0
11:53 pm 23:53 Clear 96 35.6 45 7.2 17 17 ESE 7 11 29.88 1012 10 16.09344 0.001 0.001

Powered by AerisWeather